Location: Clanezzo
(45.7500°N, 9.6000°E)
Time: 14:03:07
(UTC+00:00)

Cosmos 1867 - Pass Details

Date: 12 May 2021
Orbit: 773 x 802 km, 65.0° (Epoch: 19 June)

Event Time Altitude Azimuth Distance (km) Brightness Sun altitude
Exits shadow 22:54:37 76° 140° (SE) 823 3.4 -25.7°
Maximum altitude 22:54:46 77° 123° (ESE) 821 3.4 -25.7°
Drops below altitude 10° 23:00:14 10° 38° (NE) 2,380 6.6 -25.7°
Sets 23:02:41 0° 37° (NE) 3,316 7.5 -25.8°
